Regional Weather Roundup
Issued by NWS Spokane, WA

Home | Current Version | Previous Version | Text Only | Print | Product List | Glossary On
Versions: 1 2 3 4 5 6 7 8 9 10 11 12 13 14 15 16 17 18 19 20 21 22 23 24 25 26 27 28 29 30 31 32 33 34 35 36 37 38 39 40 41 42 43 44 45 46 47 48 49 50
000
NZUS01 KOTX 270525
RWROTX

Eastern Washington/Northern Idaho Roundup
National Weather Service, Spokane WA
1000 PM PDT FRI AUG 26 2016

Note: "fair" indicated few or no clouds below 12,000 feet with no
significant weather and/or obstructions to visibility.

...Northeast Washington and Northern Idaho Panhandle...

CITY           SKY/WX    TMP DP  RH WIND       PRES   REMARKS
Spokane Intl   CLOUDY    75  37  25 SW9       29.84F
Spokane Downto CLOUDY    72  39  30 NE3       29.83F
Coeur d Alene  CLOUDY    66  46  48 NE3       29.82F
Deer Park      CLOUDY    67  37  33 CALM      29.83F
Sandpoint      CLOUDY    63  48  59 CALM      29.83S
Bonners Ferry    N/A     73  41  31 S3        29.83S

...Southeast Washington and southern Idaho Panhandle...

CITY           SKY/WX    TMP DP  RH WIND       PRES   REMARKS
Walla Walla    PTCLDY    73  39  29 SE8       29.82S
Pullman/Moscow MOCLDY    62  36  37 CALM      29.90F
Lewiston       PTCLDY    74  37  26 S6        29.83S
Lowell           N/A     61  47  59 CALM      29.90R
Grangeville    FAIR      59  36  41 S5        29.94S

...Columbia Basin...

CITY           SKY/WX    TMP DP  RH WIND       PRES   REMARKS
Ephrata        MOCLDY    74  48  39 SW6       29.77F
Moses Lake     MOCLDY    76  47  35 S7        29.78F
Pasco          MOCLDY    74  50  42 SE5       29.77F
Richland       PTCLDY    72  47  41 CALM      29.77R
Hermiston      PTCLDY    73  41  31 S9        29.78S
Pendleton      PTCLDY    70  36  28 SE8       29.84F

...East Slopes Cascades...

CITY           SKY/WX    TMP DP  RH WIND       PRES   REMARKS
The Dalles     PTCLDY    81  43  26 SW6       29.77R
Yakima         MOCLDY    70  49  47 W8        29.81F
Ellensburg     MOCLDY    73  45  36 NW5       29.84S
Stampede Pass  CLEAR     62  43  49 VRB5      30.00F
Wenatchee      MOCLDY    76  43  30 N9        29.78F
Omak           PTCLDY    79  42  26 N3        29.75S
Chelan           N/A     82  45  26 S13         N/A
Sunnyside        N/A     66  49  54 E8        29.79S

...Southern British Columbia...

CITY           SKY/WX    TMP DP  RH WIND       PRES   REMARKS
Penticton      MOCLDY    70  50  49 SE3       29.73F
Cranbrook      CLOUDY    70  43  37 SW5       29.83
Osoyoos          N/A     70  57  64 N1          N/A
Creston          N/A     70  46  43 NE5         N/A

...Western Montana...

CITY           SKY/WX    TMP DP  RH WIND       PRES   REMARKS
Kalispell      MOCLDY    54  44  69 NE5       29.88F
Libby            N/A     66  37  34 SE6       29.86F
Missoula       MOCLDY    62  39  42 MISG      29.94S

...Neighboring Cities...

CITY           SKY/WX    TMP DP  RH WIND       PRES   REMARKS
Seattle        PTCLDY    79  46  31 W3        29.82F
Portland       CLEAR     81  50  33 NW7       29.81R
Boise          PTCLDY    68  33  27 S3        29.91F
Great Falls    CLEAR     58  39  49 SE9       29.94F
Calgary        CLOUDY    61  46  59 S8        29.79F



USA.gov is the U.S. government's official web portal to all federal, state and local government web resources and services.